Wetbulb
73.92 76.43 79.07 79.28 79.16 79.22 79.04 78.95 78.48 78.10 77.54 77.61 77.58 77.99 77.68 77.49 75.81 76.70 76.59 76.76 76.76 76.75 76.65 76.19 75.83 75.75 76.21 76.32 76.37 76.12 75.87 75.21 75.73 75.57 75.69 75.54 75.79 75.78 75.35 74.61 75.60 73.19 73.80
74.69 76.45 79.01 79.26 79.28 79.20 79.03 79.04 78.87 78.27 77.93 77.76 77.76 77.53 77.65 77.09 76.39 75.43 76.14 76.92 76.64 76.54 76.30 76.02 76.27 76.57 76.75 76.80 76.50 76.04 75.32 75.56 76.12 75.30 76.62 75.41 74.77 74.80 75.16 75.35 76.13 74.00 74.22
74.86 76.49 77.21 79.05 79.24 78.82 79.15 79.19 78.79 78.14 77.91 77.71 77.60 77.27 77.23 76.67 76.23 75.63 75.68 73.37 74.13 74.79 76.16 76.04 76.13 76.19 76.61 76.75 76.04 75.30 74.66 75.75 75.98 75.72 76.33 72.90 72.54 74.86 75.23 75.26 74.44 74.02 73.99
75.13 75.91 76.68 79.11 79.00 78.79 78.93 78.80 78.79 78.55 77.90 77.83 77.83 76.99 77.16 77.28 76.41 76.35 76.03 73.64 73.17 73.78 75.61 76.07 75.99 76.32 76.34 75.90 76.04 75.82 75.27 75.13 75.63 75.82 74.29 73.84 72.82 75.49 75.45 75.61 74.80 74.71 74.70
75.59 75.69 77.25 79.41 79.02 78.38 78.39 78.78 78.76 78.67 78.37 78.02 77.67 77.41 77.12 76.69 75.86 75.49 75.80 75.79 74.75 75.17 73.73 75.43 75.55 75.88 76.15 75.85 76.31 75.68 75.62 75.75 75.58 75.35 74.43 73.48 72.57 74.99 75.51 75.63 74.26 73.07 73.97
76.35 75.83 78.37 79.18 78.47 78.39 78.23 78.58 78.35 77.78 78.48 78.11 77.59 77.01 76.66 76.36 75.97 75.55 75.27 75.15 75.08 75.30 74.69 74.47 74.94 75.86 75.61 76.37 76.04 75.88 76.09 75.83 75.72 74.68 73.55 75.13 73.43 75.97 75.76 74.83 74.44 74.85 74.01
76.35 76.01 77.49 79.03 78.47 77.95 77.82 77.99 77.91 77.86 77.79 77.61 77.40 77.14 76.73 76.68 76.52 76.11 75.88 75.52 75.44 75.47 75.74 75.89 75.25 75.85 76.24 76.54 76.32 76.33 76.41 76.02 74.90 75.03 73.66 72.98 74.57 76.13 74.44 74.31 73.58 74.86 74.66
76.72 76.45 76.76 78.72 78.38 77.80 77.65 77.57 77.57 77.55 77.54 77.46 77.17 77.09 76.86 76.73 76.40 76.08 76.13 75.63 75.66 75.75 75.72 76.16 75.74 75.74 76.65 76.57 76.02 76.64 76.61 76.53 75.33 74.04 73.52 73.42 74.90 76.23 75.10 74.00 74.32 74.04 74.47
77.26 77.12 77.40 77.07 78.06 78.01 77.68 77.60 77.57 77.42 77.15 77.35 77.55 77.63 77.26 76.92 76.13 76.08 76.08 76.05 75.61 75.36 75.77 75.87 76.34 75.91 76.08 76.64 76.29 76.25 76.56 76.20 74.11 74.48 73.77 73.34 75.46 76.29 75.81 75.36 75.22 74.08 74.73
77.48 77.28 76.80 77.83 77.42 77.35 76.58 78.25 77.81 77.85 77.40 77.28 77.15 77.31 77.09 76.55 76.33 76.82 77.27 77.15 76.18 75.33 75.25 75.52 75.91 76.50 76.84 77.24 76.92 76.79 76.51 76.41 73.75 74.04 74.08 73.70 75.93 75.56 75.25 74.97 74.94 74.80 74.17
76.49 77.16 77.50 77.54 79.02 78.64 77.86 77.47 78.68 77.84 77.33 77.79 77.05 77.16 77.23 76.33 75.71 76.08 76.69 77.34 76.52 75.88 75.33 75.61 75.91 76.90 76.39 76.42 76.84 76.46 75.93 73.53 72.93 73.68 73.95 75.59 75.87 76.15 75.04 75.35 75.76 75.81 74.29
74.24 75.95 77.18 77.06 77.17 77.80 76.42 77.83 77.12 76.91 76.17 76.80 76.94 76.84 75.93 72.98 73.77 73.20 75.90 76.66 76.11 76.36 75.94 75.88 76.04 76.75 76.12 74.85 75.68 76.09 74.30 73.74 73.81 73.56 74.57 75.98 76.38 76.83 76.46 76.42 76.12 75.84 74.87
75.28 75.88 77.18 77.75 77.00 77.04 77.30 77.03 76.43 76.48 75.07 75.54 75.78 76.53 75.22 74.02 71.28 73.41 74.05 75.16 75.80 76.39 75.17 75.42 75.21 74.77 74.60 74.02 74.60 74.27 73.86 74.03 73.75 74.26 75.09 76.54 76.53 76.68 76.28 76.78 76.66 75.97 75.32
74.88 74.51 75.41 77.83 77.91 78.66 75.71 74.42 77.82 74.62 72.46 70.41 74.93 77.72 75.36 74.05 74.75 74.25 75.05 76.07 76.05 77.11 75.45 73.07 70.68 72.31 73.73 74.61 74.98 73.67 74.48 73.95 73.25 73.23 75.30 76.96 76.56 76.61 76.75 76.81 77.06 76.58 75.94
74.84 75.42 77.08 78.15 79.71 80.13 79.70 77.50 77.84 75.22 72.43 72.82 74.21 78.06 76.96 75.88 75.92 75.94 73.98 74.25 73.89 76.02 75.37 72.45 68.79 66.30 72.97 74.99 75.18 74.08 73.86 73.60 74.62 74.75 75.47 76.81 76.04 76.51 76.50 76.71 76.96 76.53 76.57
67.54 68.13 69.29 77.75 77.89 77.95 77.51 77.93 76.35 76.67 76.01 75.13 74.41 75.38 77.24 76.22 75.27 74.84 71.21 71.36 71.82 74.97 73.57 73.70 73.18 72.57 73.14 75.66 75.21 74.27 73.62 74.14 74.48 74.77 74.66 74.97 76.25 76.08 76.64 77.08 77.29 77.12 76.76
63.94 64.43 68.55 71.16 76.47 76.18 76.89 75.80 77.84 77.67 75.83 73.45 72.74 73.73 75.91 75.22 74.75 74.02 71.31 71.66 72.20 70.77 68.90 70.57 73.34 74.72 74.21 75.33 75.20 73.30 75.19 75.25 74.94 74.72 73.83 74.42 74.97 76.76 76.93 76.94 77.14 76.92 76.57
64.78 64.35 64.37 70.68 76.12 76.23 77.36 78.23 78.46 77.48 75.11 73.54 73.77 74.01 74.49 74.82 74.70 73.33 71.91 74.02 71.84 71.58 68.81 67.15 72.69 73.36 74.01 73.79 73.74 74.42 72.80 74.13 75.02 74.10 74.81 74.69 74.50 74.23 75.85 76.43 76.24 76.45 76.57
68.58 67.06 66.01 72.81 74.62 74.81 76.37 76.30 76.57 73.17 72.87 73.30 74.49 73.03 71.98 72.63 73.62 72.87 74.32 74.59 76.04 73.94 71.47 70.42 75.07 74.24 73.91 74.02 73.57 72.54 72.34 74.37 75.21 74.14 73.91 73.44 74.31 74.29 74.45 75.31 75.42 74.99 75.98
67.58 68.16 69.98 74.62 73.39 73.00 75.91 75.92 72.72 71.81 70.96 71.84 73.22 72.82 72.36 73.51 73.53 74.25 74.72 75.31 76.47 75.74 74.41 73.66 74.07 73.77 73.12 73.02 73.46 72.82 73.34 73.78 74.07 73.30 72.92 73.61 72.84 73.97 74.80 73.94 73.59 73.54 75.13
70.48 73.87 72.73 71.35 71.26 73.62 75.41 74.45 70.55 69.94 70.09 69.26 71.64 71.54 72.74 72.64 74.01 74.09 73.26 74.69 74.74 74.97 74.43 74.19 73.58 72.98 73.28 73.66 72.13 71.43 72.23 73.19 73.15 73.11 73.05 72.54 71.62 73.45 72.71 72.62 73.84 74.18 74.42
71.72 72.48 73.39 71.64 75.17 76.41 76.81 77.06 73.87 71.05 70.22 70.48 69.91 71.11 71.69 72.70 73.51 74.91 74.17 73.10 73.24 74.03 74.07 74.02 73.64 73.15 73.07 74.08 70.65 70.45 67.37 69.59 71.69 71.83 71.38 72.00 70.77 72.35 72.43 73.28 72.86 72.71 71.35
71.56 72.33 73.26 73.45 75.47 77.48 77.31 74.75 74.08 73.74 70.07 69.48 69.63 71.00 72.06 73.29 73.35 72.97 74.48 74.77 75.26 74.99 73.48 74.34 74.85 73.59 71.39 73.48 73.33 70.04 66.81 65.78 68.52 71.18 70.09 70.17 71.30 71.20 72.54 72.81 72.34 71.08 70.89
72.65 73.62 75.70 76.13 76.42 77.77 77.81 74.70 75.05 73.59 71.82 72.23 73.99 73.31 73.00 74.85 74.29 74.65 75.01 74.44 73.62 74.82 74.51 74.34 74.88 74.14 73.27 70.72 72.83 72.04 71.19 70.27 66.86 65.16 68.90 70.13 70.60 71.02 71.55 72.39 72.39 71.08 68.88
72.79 73.82 74.42 76.15 77.02 77.10 77.77 77.29 75.59 75.29 75.37 74.16 74.30 75.27 75.39 72.79 73.92 73.59 73.76 74.39 74.47 74.80 75.20 74.79 75.05 74.47 73.93 71.78 71.75 71.41 70.64 69.91 70.16 68.02 65.20 67.30 68.38 69.02 69.89 70.45 70.30 71.93 70.05
73.79 73.81 73.56 75.90 76.90 77.24 77.34 76.75 77.12 75.76 75.53 73.42 73.47 72.81 73.10 73.42 72.55 74.30 73.45 73.85 74.55 74.32 74.53 74.66 73.72 73.45 73.69 73.21 72.38 72.17 70.57 69.34 68.63 68.30 66.81 66.29 64.92 65.92 67.03 68.43 68.59 69.06 69.72
MSLP
1010.49 1011.39 1011.97 1012.16 1012.48 1012.82 1013.18 1013.47 1013.79 1014.09 1014.43 1014.64 1014.92 1015.16 1015.31 1015.34 1015.43 1015.45 1015.71 1015.89 1016.07 1016.25 1016.42 1016.58 1016.70 1016.72 1016.82 1016.94 1017.13 1017.32 1017.45 1017.49 1017.46 1017.56 1017.65 1017.76 1018.06 1018.28 1018.41 1018.50 1018.45 1018.76 1019.15
1010.25 1011.32 1011.97 1012.28 1012.61 1012.87 1013.26 1013.56 1013.85 1014.14 1014.49 1014.79 1014.93 1015.19 1015.38 1015.43 1015.53 1015.85 1016.05 1016.09 1016.15 1016.40 1016.69 1016.83 1016.88 1016.90 1016.99 1017.10 1017.32 1017.49 1017.62 1017.69 1017.73 1017.80 1017.75 1017.89 1018.24 1018.54 1018.61 1018.51 1018.69 1019.15 1019.43
1010.33 1011.42 1011.92 1012.41 1012.73 1013.01 1013.32 1013.69 1013.95 1014.25 1014.52 1014.81 1014.93 1015.29 1015.40 1015.47 1015.75 1016.10 1016.37 1016.52 1016.59 1016.71 1016.74 1017.01 1017.17 1017.21 1017.26 1017.30 1017.47 1017.64 1017.65 1017.79 1018.01 1018.07 1017.91 1017.89 1018.36 1018.64 1018.87 1019.00 1019.14 1019.38 1019.67
1010.43 1010.95 1011.89 1012.53 1012.84 1013.15 1013.44 1013.79 1014.02 1014.24 1014.61 1014.85 1015.05 1015.36 1015.40 1015.47 1015.68 1016.09 1016.44 1016.66 1016.81 1016.85 1016.95 1017.03 1017.37 1017.45 1017.49 1017.58 1017.67 1017.74 1017.74 1017.97 1018.13 1018.06 1017.93 1017.95 1018.06 1018.77 1019.07 1019.32 1019.49 1019.68 1019.83
1009.75 1010.73 1012.15 1012.55 1012.92 1013.22 1013.53 1013.87 1014.15 1014.30 1014.63 1014.85 1015.08 1015.41 1015.57 1015.55 1015.63 1015.86 1016.22 1016.55 1016.80 1016.90 1017.01 1017.12 1017.32 1017.52 1017.66 1017.74 1017.83 1017.89 1017.82 1017.92 1017.99 1017.93 1018.16 1018.09 1018.24 1018.91 1019.26 1019.43 1019.61 1019.86 1019.92
1009.77 1010.94 1012.12 1012.60 1013.03 1013.38 1013.67 1013.97 1014.25 1014.51 1014.73 1014.91 1015.10 1015.27 1015.49 1015.60 1015.58 1015.77 1016.01 1016.35 1016.59 1016.78 1017.00 1017.13 1017.32 1017.53 1017.71 1017.85 1017.97 1017.99 1017.89 1018.07 1017.92 1017.87 1017.75 1017.89 1018.34 1019.00 1019.31 1019.51 1019.64 1019.95 1020.16
1010.19 1011.15 1012.00 1012.64 1013.10 1013.56 1013.85 1014.01 1014.27 1014.53 1014.77 1015.01 1015.17 1015.31 1015.47 1015.59 1015.64 1015.81 1016.03 1016.25 1016.52 1016.72 1016.91 1017.11 1017.27 1017.51 1017.69 1017.92 1018.06 1018.03 1017.99 1018.11 1017.91 1017.77 1017.73 1018.24 1018.81 1019.09 1019.35 1019.60 1019.86 1020.01 1020.29
1010.02 1011.05 1011.88 1012.61 1013.03 1013.51 1013.74 1013.97 1014.21 1014.47 1014.68 1014.86 1015.16 1015.39 1015.49 1015.67 1015.86 1016.01 1016.13 1016.22 1016.43 1016.63 1016.75 1016.99 1017.20 1017.40 1017.69 1017.92 1018.08 1018.09 1017.92 1018.07 1017.95 1017.86 1017.77 1018.16 1018.70 1018.99 1019.22 1019.62 1019.89 1020.09 1020.31
1009.88 1011.08 1011.95 1012.59 1012.89 1013.14 1013.38 1013.69 1014.16 1014.58 1014.85 1015.01 1015.11 1015.22 1015.43 1015.63 1015.94 1016.08 1016.12 1016.21 1016.41 1016.70 1016.78 1016.93 1017.05 1017.24 1017.51 1017.77 1017.97 1018.09 1017.96 1018.02 1018.21 1017.70 1017.57 1018.25 1018.77 1018.85 1019.24 1019.57 1019.79 1020.05 1020.29
1010.18 1010.83 1011.45 1012.36 1012.91 1013.13 1013.20 1013.57 1014.11 1014.55 1014.83 1015.12 1015.39 1015.37 1015.55 1015.85 1016.01 1016.22 1016.29 1016.40 1016.49 1016.78 1016.93 1016.91 1016.99 1017.24 1017.55 1017.69 1017.84 1018.02 1018.01 1017.98 1017.96 1017.73 1017.77 1018.00 1018.53 1018.73 1019.11 1019.53 1019.81 1020.04 1020.25
1010.09 1010.75 1011.35 1012.03 1012.47 1012.53 1012.91 1013.20 1013.67 1014.30 1014.81 1015.23 1015.39 1015.41 1015.58 1015.43 1015.83 1016.22 1016.29 1016.12 1016.47 1016.67 1016.96 1017.06 1017.08 1017.27 1017.60 1017.79 1017.88 1017.93 1018.05 1017.76 1017.36 1017.51 1017.80 1018.19 1018.55 1018.57 1019.00 1019.37 1019.67 1019.92 1020.22
1009.85 1010.52 1010.96 1011.33 1011.93 1012.31 1012.24 1013.13 1013.36 1013.57 1014.25 1014.89 1014.92 1015.75 1015.59 1016.46 1016.44 1017.09 1017.02 1016.33 1016.37 1016.55 1016.84 1017.15 1017.21 1017.23 1017.33 1017.42 1017.81 1017.90 1017.81 1017.48 1017.18 1017.17 1017.45 1018.04 1018.40 1018.44 1018.76 1019.16 1019.51 1019.75 1020.04
1009.37 1010.13 1010.73 1011.03 1011.43 1011.72 1012.77 1013.40 1013.62 1013.23 1013.95 1014.63 1014.65 1015.59 1015.93 1016.45 1016.57 1017.64 1017.63 1016.41 1016.44 1016.76 1016.81 1017.20 1017.20 1016.96 1016.99 1017.05 1017.13 1017.56 1017.39 1016.89 1016.66 1017.13 1017.26 1017.74 1017.96 1018.34 1018.52 1019.01 1019.34 1019.60 1019.85
1009.66 1010.53 1010.89 1011.25 1011.53 1011.75 1013.17 1013.68 1012.53 1013.27 1014.24 1015.31 1015.01 1015.13 1015.96 1016.30 1016.50 1016.71 1016.24 1016.01 1016.63 1016.79 1017.09 1017.48 1017.33 1017.12 1017.03 1016.47 1016.78 1016.93 1016.83 1016.43 1016.38 1016.75 1017.09 1017.39 1017.61 1017.91 1018.16 1018.55 1019.03 1019.41 1019.68
1009.86 1010.37 1010.87 1011.32 1011.61 1011.75 1012.07 1012.74 1013.18 1013.53 1014.85 1015.47 1015.15 1014.74 1015.24 1015.45 1015.57 1015.69 1015.89 1015.97 1016.22 1016.80 1017.18 1017.49 1017.15 1017.11 1017.47 1016.69 1016.37 1016.48 1016.39 1016.19 1016.13 1016.41 1016.64 1017.20 1017.65 1017.81 1018.02 1018.14 1018.67 1019.07 1019.37
1013.87 1013.76 1012.67 1011.73 1011.63 1012.21 1012.42 1012.57 1013.64 1014.02 1014.51 1014.89 1014.81 1015.25 1014.93 1014.82 1014.97 1015.39 1015.65 1016.19 1016.11 1017.02 1017.66 1017.50 1017.47 1017.67 1017.43 1016.10 1016.15 1016.06 1016.11 1015.95 1015.85 1016.05 1016.49 1017.17 1017.38 1017.41 1017.59 1017.92 1018.16 1018.47 1018.81
1010.81 1013.13 1012.89 1012.76 1012.20 1012.68 1012.86 1013.05 1012.92 1013.58 1014.11 1014.43 1014.73 1014.76 1014.80 1015.08 1015.25 1015.14 1015.47 1015.39 1016.03 1016.47 1016.89 1017.26 1017.03 1016.63 1016.46 1015.79 1015.78 1015.65 1015.47 1015.50 1015.71 1015.81 1016.11 1016.61 1016.90 1017.05 1017.14 1017.60 1017.73 1017.91 1018.32
1012.16 1012.93 1012.17 1012.03 1012.52 1013.25 1013.09 1013.01 1012.85 1013.14 1013.60 1014.00 1014.01 1014.56 1014.55 1014.73 1014.97 1015.12 1015.37 1015.27 1015.72 1015.99 1017.03 1017.65 1016.83 1016.09 1016.09 1015.95 1015.89 1015.71 1015.76 1015.67 1015.41 1015.65 1015.91 1015.99 1016.33 1016.41 1016.81 1016.99 1017.20 1017.57 1017.94
1013.20 1012.71 1012.76 1012.31 1012.93 1013.63 1013.39 1013.25 1013.07 1013.43 1013.53 1013.88 1014.37 1014.70 1014.93 1014.80 1014.87 1015.27 1015.08 1014.92 1014.84 1015.33 1016.53 1017.01 1016.06 1015.98 1015.90 1015.70 1015.50 1015.43 1015.45 1015.49 1015.49 1015.31 1015.45 1015.60 1015.79 1016.03 1016.25 1016.55 1016.99 1017.69 1017.91
1014.07 1013.04 1013.26 1012.69 1013.41 1013.88 1013.76 1013.67 1013.70 1013.96 1014.09 1014.03 1014.29 1014.41 1014.74 1014.72 1014.78 1014.93 1014.99 1014.84 1014.82 1015.16 1015.24 1015.42 1015.46 1015.50 1015.42 1015.17 1015.22 1015.04 1015.22 1015.21 1015.09 1015.25 1015.23 1015.16 1015.34 1015.39 1015.53 1016.02 1016.87 1017.05 1017.25
1012.87 1012.44 1012.62 1012.91 1013.66 1013.55 1013.39 1013.44 1014.25 1014.49 1014.44 1014.48 1014.28 1014.39 1014.44 1014.55 1014.58 1014.74 1014.44 1014.79 1014.91 1015.17 1015.21 1015.24 1015.17 1015.20 1015.21 1015.13 1015.39 1015.27 1014.99 1014.79 1014.64 1014.61 1014.70 1014.80 1014.71 1014.77 1015.13 1015.36 1016.07 1016.20 1016.21
1011.88 1011.63 1012.35 1013.14 1013.40 1012.88 1012.79 1012.83 1013.33 1014.10 1014.34 1014.32 1014.38 1014.33 1014.33 1014.31 1014.35 1014.29 1014.41 1014.48 1014.71 1014.82 1014.83 1014.71 1014.79 1014.94 1015.00 1014.98 1015.26 1015.29 1015.09 1014.37 1014.06 1014.17 1014.38 1014.70 1014.70 1014.46 1014.45 1015.00 1015.77 1015.95 1016.50
1011.15 1011.26 1011.95 1012.53 1012.69 1012.40 1012.56 1012.91 1013.51 1013.56 1014.27 1014.62 1014.54 1014.40 1014.25 1014.25 1014.31 1014.40 1014.08 1014.31 1014.61 1014.68 1014.50 1014.43 1014.55 1014.85 1014.99 1014.89 1014.96 1015.28 1015.12 1014.69 1014.40 1014.09 1014.29 1014.78 1014.65 1014.85 1014.55 1015.06 1015.37 1015.67 1016.08
1010.61 1011.12 1011.63 1012.15 1012.53 1012.29 1012.35 1012.59 1012.77 1013.22 1013.62 1014.22 1014.48 1014.30 1014.20 1013.88 1013.89 1013.94 1014.03 1014.23 1014.43 1014.50 1014.54 1014.66 1014.64 1014.67 1014.79 1014.76 1014.80 1014.83 1014.85 1014.99 1015.03 1014.82 1014.22 1015.07 1015.17 1015.35 1015.31 1015.53 1015.47 1016.01 1016.85
1010.21 1010.84 1011.28 1011.81 1012.16 1012.15 1012.16 1012.01 1012.56 1013.04 1013.53 1013.92 1014.20 1014.33 1014.27 1014.21 1014.07 1014.31 1014.51 1014.51 1014.58 1014.65 1014.61 1014.59 1014.49 1014.58 1014.65 1014.73 1014.71 1014.77 1014.79 1014.86 1014.97 1015.32 1015.13 1015.81 1016.40 1016.80 1016.76 1016.49 1016.63 1016.71 1017.47
1009.80 1010.46 1011.08 1011.56 1011.91 1012.22 1012.17 1012.36 1012.77 1013.03 1013.21 1013.96 1014.43 1014.36 1014.04 1014.26 1014.40 1014.40 1014.63 1014.64 1014.50 1014.62 1014.59 1014.60 1014.57 1014.57 1014.59 1014.62 1014.61 1014.63 1014.77 1014.77 1014.83 1015.00 1015.42 1016.25 1016.82 1017.63 1017.73 1017.72 1017.71 1017.67 1017.72
Wind_Speed
17 15 13 13 12 12 12 11 12 13 13 12 11 11 11 10 10 10 8 9 9 8 8 8 6 7 9 10 10 9 9 9 12 12 11 14 12 11 8 6 9 13 12
19 16 14 14 13 13 12 11 12 12 13 13 12 11 10 10 9 8 9 10 10 8 6 6 5 8 10 10 10 9 8 8 9 12 15 13 13 10 10 13 18 12 11
19 16 15 14 13 13 12 11 11 11 12 12 11 12 9 9 9 7 10 7 7 6 5 5 5 7 8 10 10 8 7 5 6 8 12 9 9 11 11 12 14 12 11
17 16 15 13 14 13 12 11 11 12 11 10 10 11 10 7 6 7 9 7 5 4 5 6 5 6 7 6 9 8 6 5 5 7 6 6 11 11 11 12 11 10 13
19 17 15 15 14 14 13 11 10 10 12 10 10 11 10 8 6 4 6 7 4 2 5 4 5 6 7 7 7 6 5 6 6 7 3 6 8 11 10 10 10 8 5
20 18 17 15 14 14 13 12 11 11 11 11 11 11 10 8 6 3 2 3 3 3 3 3 3 6 7 8 7 6 6 5 6 7 4 11 9 12 11 6 11 9 10
19 17 16 14 13 12 12 12 12 11 11 11 10 10 9 8 7 5 4 2 3 3 4 5 4 6 7 8 8 7 7 7 7 5 3 10 9 11 10 8 9 9 8
19 17 15 15 13 12 11 11 11 11 11 11 10 10 9 7 6 5 4 3 2 3 4 6 7 6 7 8 8 7 9 9 8 7 9 9 13 13 12 9 9 8 7
19 16 14 12 12 14 13 12 11 10 9 10 11 11 9 7 7 6 5 5 3 3 3 5 7 7 8 9 9 8 10 10 6 6 8 8 12 14 11 9 10 8 7
15 15 14 12 10 10 10 13 13 12 11 10 10 10 10 8 8 8 6 6 5 4 3 3 4 6 8 9 9 9 9 10 7 5 2 7 14 14 13 10 9 8 7
10 11 12 10 7 9 10 11 12 12 10 9 9 9 9 8 8 7 9 10 9 7 6 4 5 6 8 9 10 10 9 5 7 3 3 14 13 14 13 10 9 10 8
15 16 13 12 11 9 9 10 10 11 8 7 8 8 6 7 8 11 5 9 9 8 7 7 5 6 8 7 6 9 5 9 7 3 3 14 14 14 13 11 10 10 9
8 12 12 8 8 11 5 5 6 6 2 0 4 7 4 5 12 14 8 4 4 8 4 6 6 5 9 6 6 7 9 9 4 1 7 16 15 13 14 10 11 11 11
8 13 8 11 8 5 9 8 2 6 8 2 8 4 3 3 4 8 4 3 1 1 1 2 1 6 11 7 7 9 7 6 2 5 10 16 16 16 15 13 11 12 12
9 9 10 9 5 3 3 4 3 4 9 12 9 3 3 3 2 3 2 0 0 2 2 3 3 11 7 7 6 7 6 6 5 1 3 12 14 16 15 15 13 13 14
30 23 19 7 6 6 4 2 3 4 6 3 4 3 2 0 0 1 1 2 1 3 5 5 7 13 11 6 6 7 6 5 5 3 4 7 15 15 15 15 15 15 15
21 12 16 9 6 5 4 3 1 1 4 4 3 3 5 4 3 3 2 2 4 4 9 10 11 6 5 5 4 5 3 3 4 5 6 6 8 15 16 16 16 16 15
11 8 18 5 4 4 4 2 1 1 3 2 1 2 0 3 3 3 4 3 4 3 4 10 10 4 4 4 3 3 2 8 6 5 4 4 6 6 12 17 17 16 15
2 7 15 2 1 4 4 5 3 5 3 2 1 1 2 5 5 4 4 5 4 5 9 13 6 4 4 4 4 5 5 5 4 7 6 6 6 7 5 13 15 10 14
14 9 10 3 4 4 2 5 4 3 3 3 1 2 3 3 5 6 5 6 4 4 4 4 5 4 5 6 5 5 5 6 5 5 5 5 6 7 5 6 8 10 22
14 7 4 5 6 6 4 6 3 2 3 2 3 5 4 4 5 5 5 4 5 4 5 6 5 5 4 3 2 4 4 7 7 6 7 7 6 8 6 5 7 6 7
6 6 7 6 7 5 5 3 5 5 2 2 2 4 3 4 5 4 4 4 5 4 5 5 4 3 2 2 3 1 3 4 7 8 2 5 4 6 9 3 5 5 6
3 4 3 7 5 5 5 7 5 6 3 1 1 1 2 4 3 8 3 2 2 4 4 4 4 3 4 2 5 4 3 3 3 2 4 8 3 5 3 6 6 3 5
5 6 5 6 6 6 6 7 6 3 6 3 2 2 0 4 4 5 5 5 5 4 5 3 2 3 2 4 1 5 7 3 2 3 3 2 9 8 10 4 4 4 5
7 7 7 6 6 6 5 7 4 4 3 4 4 2 2 1 3 4 4 5 5 3 3 5 4 4 3 3 3 2 4 4 5 3 1 4 7 7 6 8 6 7 8
6 9 8 7 6 7 5 8 3 5 5 5 2 1 1 3 3 4 5 4 2 3 4 3 4 5 3 3 4 3 3 2 3 2 1 4 5 5 6 6 6 6 5
Wind_Direction
113 118 111 108 113 120 130 128 130 126 126 122 123 119 118 118 111 109 111 110 107 103 97 98 94 100 95 102 104 96 94 91 97 96 100 94 93 88 77 83 139 95 95
122 120 112 111 113 118 129 125 132 134 133 134 138 135 131 132 137 131 121 110 98 97 107 112 98 115 119 116 106 100 102 114 118 117 118 105 103 86 67 64 89 102 97
118 126 122 117 112 114 118 127 133 135 138 143 136 136 136 146 151 147 106 100 93 85 93 100 104 103 109 106 107 111 126 125 133 143 153 123 107 96 85 88 103 107 108
133 132 132 121 118 116 113 117 125 138 144 142 135 136 142 151 158 146 134 120 101 84 74 106 124 125 115 114 118 129 145 135 154 192 210 133 119 110 102 100 100 101 110
137 127 127 127 127 125 121 118 116 131 147 145 142 141 152 155 167 155 136 146 158 151 89 109 138 130 131 135 132 145 163 176 201 229 195 179 120 117 121 123 117 114 112
114 124 130 132 132 133 132 130 124 123 141 149 153 152 161 167 182 163 179 132 155 158 160 120 138 154 151 144 149 164 203 207 237 234 89 86 101 131 130 120 112 109 118
119 127 130 132 134 136 135 135 135 137 141 151 159 164 169 176 185 183 176 154 150 189 183 196 171 177 163 156 163 188 221 222 244 261 128 105 120 140 138 130 128 124 120
131 125 132 135 139 143 143 145 146 149 153 158 167 170 171 180 184 183 171 159 148 154 201 196 193 175 175 176 181 204 234 248 248 287 146 128 147 144 142 149 137 144 136
124 128 131 140 150 154 157 163 161 163 167 172 174 179 178 178 182 190 178 169 181 163 217 214 187 186 188 184 187 209 249 264 292 285 126 125 153 141 144 151 157 156 159
134 146 140 142 162 168 168 173 173 175 179 187 188 184 176 186 200 197 196 198 186 175 199 222 217 201 199 201 194 209 243 268 262 307 354 134 154 150 157 166 173 172 175
142 139 136 145 167 185 171 172 175 176 188 199 199 200 179 201 188 206 211 174 188 184 183 204 208 199 202 209 200 210 229 255 257 138 96 150 161 157 164 174 178 182 186
149 150 154 157 165 197 198 154 176 173 181 193 205 195 221 69 67 355 271 178 183 196 202 207 208 201 196 189 202 209 216 236 236 197 151 164 173 163 169 181 187 191 195
172 147 162 160 156 203 169 153 213 165 76 276 199 182 118 119 119 228 245 181 199 197 220 189 203 212 207 225 186 196 219 237 227 117 190 175 168 175 173 190 192 203 205
171 149 132 140 182 231 128 178 199 92 91 6 283 165 134 143 165 176 189 92 15 244 22 117 280 314 293 188 177 206 239 241 210 166 156 183 181 181 180 187 199 205 212
141 131 129 146 181 228 203 107 61 97 131 192 204 172 139 166 148 105 55 68 92 340 201 180 141 264 262 252 214 218 222 250 265 136 140 179 189 186 190 189 202 209 213
15 9 354 313 135 301 313 274 142 162 140 141 138 157 149 338 115 131 176 206 107 48 356 289 232 197 229 230 203 199 218 231 227 210 165 193 198 189 188 201 206 211 214
76 341 250 297 350 212 292 308 290 173 149 147 168 170 158 179 233 233 278 296 86 84 349 308 262 241 251 251 231 239 254 244 285 227 168 182 193 200 191 205 212 216 216
141 203 276 35 26 353 357 239 201 314 134 137 105 333 285 252 244 266 266 264 155 139 250 265 251 251 241 262 274 277 152 256 216 230 220 228 190 197 207 212 212 215 213
294 233 250 45 352 349 14 6 58 43 53 65 122 184 259 262 261 225 259 268 257 238 192 220 240 239 234 244 232 235 232 233 238 241 234 233 196 193 189 216 215 229 230
238 226 225 102 174 244 274 90 75 56 32 23 341 341 236 262 272 271 261 260 275 271 275 246 225 242 247 233 257 272 225 237 216 227 223 229 223 212 200 180 185 212 231
211 153 94 146 218 208 182 134 112 111 80 347 342 331 319 279 265 304 282 263 256 241 242 237 244 256 271 323 302 268 260 230 232 212 223 227 246 202 198 212 197 207 204
165 141 132 152 189 168 155 78 95 137 121 126 284 304 317 324 314 258 271 256 254 259 252 257 249 276 281 263 251 341 286 272 232 230 113 301 294 202 199 141 83 60 42
92 146 160 158 220 165 122 115 129 117 101 155 241 269 274 260 285 263 237 308 279 253 300 262 219 239 264 272 217 218 240 241 343 157 211 227 100 33 72 86 65 129 63
161 150 185 168 189 163 173 145 174 52 115 170 146 186 230 340 341 348 5 359 347 344 338 337 303 261 258 261 206 229 256 294 299 320 358 99 43 48 42 22 70 86 89
172 160 176 181 202 144 219 146 135 118 125 116 112 143 134 250 8 23 356 1 347 333 319 312 328 302 276 272 247 266 256 249 242 227 221 98 70 45 31 43 26 74 86
169 169 185 166 161 198 163 107 145 133 99 109 149 215 29 137 97 36 7 350 329 345 341 346 344 343 317 283 269 270 237 220 260 238 168 83 97 53 35 39 54 67 82